Location: Te Maire Creek
(41.1333°S, 175.9167°E)
Time: 21:59:08
(UTC+00:00)

SOZ - Pass Details

Date: 19 May 2024
Orbit: 321 x 16429 km, 52.0° (Epoch: 21 June)

Event Time Altitude Azimuth Distance (km) Brightness Sun altitude
Rises 18:43:46 0° 303° (WNW) 3,304 8.9 -7.5°
Reaches altitude 10° 18:46:49 10° 300° (WNW) 1,713 7.5 -6.9°
Maximum altitude 18:49:52 67° 216° (SW) 385 4.4 -6.4°
Drops below altitude 10° 18:52:08 10° 131° (SE) 1,278 7.6 -6.0°
Sets 18:54:03 0° 128° (SE) 2,296 9.0 -5.7°
